| time (UTC) | temp C | wind direction | speed KPH | gust KPH | rain 1hr cm | rain 24hr cm | rain mn cm | humidity % | barometer mb |
| 20260504110555 | 6 | 270 | 0.0 | 0.0 | 0.00 | 0.00 | 0.00 | 84 | 1010.6 |
| 20260504110103 | 6 | 270 | 0.0 | 0.0 | 0.00 | 0.00 | 0.00 | 84 | 1010.6 |
| 20260504100605 | 6 | 270 | 0.0 | 0.0 | 0.00 | 0.00 | 0.00 | 80 | 1010.6 |
| 20260504081608 | 8 | 270 | 0.0 | 0.0 | 0.00 | 0.00 | 0.00 | 61 | 1010.5 |
| 20260504081057 | 8 | 270 | 0.0 | 0.0 | 0.00 | 0.00 | 0.00 | 60 | 1010.6 |
| 20260504080559 | 8 | 270 | 0.0 | 0.0 | 0.00 | 0.00 | 0.00 | 61 | 1010.6 |
| 20260504060126 | 8 | 270 | 0.0 | 0.0 | 0.00 | 0.00 | 0.00 | 57 | 1010.5 |
| 20260504050601 | 8 | 270 | 0.0 | 0.0 | 0.00 | 0.00 | 0.00 | 47 | 1010.6 |
| 20260504050116 | 8 | 270 | 0.0 | 0.0 | 0.00 | 0.00 | 0.00 | 48 | 1010.6 |
| 20260504045504 | 8 | 270 | 0.0 | 0.0 | 0.00 | 0.00 | 0.00 | 47 | 1010.7 |
| 20260504045006 | 8 | 270 | 0.0 | 0.0 | 0.00 | 0.00 | 0.00 | 48 | 1010.7 |
| 20260504044604 | 8 | 270 | 0.0 | 0.0 | 0.00 | 0.00 | 0.00 | 50 | 1010.7 |
| 20260504044106 | 8 | 270 | 0.0 | 0.0 | 0.00 | 0.00 | 0.00 | 51 | 1010.5 |
| 20260504043504 | 8 | 270 | 0.0 | 0.0 | 0.00 | 0.00 | 0.00 | 52 | 1010.5 |
| 20260504043006 | 8 | 270 | 0.0 | 0.0 | 0.00 | 0.00 | 0.00 | 54 | 1010.5 |
| 20260504042600 | 8 | 270 | 0.0 | 0.0 | 0.00 | 0.00 | 0.00 | 53 | 1010.3 |
| 20260504042104 | 8 | 270 | 0.0 | 0.0 | 0.00 | 0.00 | 0.00 | 53 | 1010.3 |
| 20260504041500 | 8 | 270 | 0.0 | 0.0 | 0.00 | 0.00 | 0.00 | 50 | 1010.3 |
| 20260504041003 | 8 | 270 | 0.0 | 0.0 | 0.00 | 0.00 | 0.00 | 52 | 1010.3 |
| 20260504040504 | 8 | 270 | 0.0 | 0.0 | 0.00 | 0.00 | 0.00 | 52 | 1010.3 |
| 20260504040007 | 8 | 270 | 0.0 | 0.0 | 0.00 | 0.00 | 0.00 | 51 | 1010.3 |
| 20260504035512 | 8 | 270 | 0.0 | 0.0 | 0.00 | 0.00 | 0.00 | 52 | 1010.2 |
| 20260504035003 | 8 | 270 | 0.0 | 0.0 | 0.00 | 0.00 | 0.00 | 52 | 1010.2 |
| 20260504034506 | 8 | 270 | 0.0 | 0.0 | 0.00 | 0.00 | 0.00 | 51 | 1010.2 |
| 20260504034012 | 8 | 270 | 0.0 | 0.0 | 0.00 | 0.00 | 0.00 | 51 | 1010.1 |
| 20260504033604 | 8 | 270 | 0.0 | 0.0 | 0.00 | 0.00 | 0.00 | 49 | 1010.1 |
| 20260504033108 | 8 | 270 | 0.0 | 0.0 | 0.00 | 0.00 | 0.00 | 51 | 1010.1 |
| 20260504032503 | 8 | 270 | 0.0 | 0.0 | 0.00 | 0.00 | 0.00 | 50 | 1010.1 |
| 20260504032059 | 8 | 270 | 0.0 | 0.0 | 0.00 | 0.00 | 0.00 | 50 | 1010.1 |
| 20260504031605 | 8 | 270 | 0.0 | 0.0 | 0.00 | 0.00 | 0.00 | 49 | 1010.1 |
| 20260504031102 | 9 | 270 | 0.0 | 0.0 | 0.00 | 0.00 | 0.00 | 50 | 1010.0 |
| 20260504030606 | 9 | 270 | 0.0 | 0.0 | 0.00 | 0.00 | 0.00 | 50 | 1010.0 |
| 20260504030052 | 9 | 270 | 0.0 | 0.0 | 0.00 | 0.00 | 0.00 | 48 | 1010.0 |
| 20260504025556 | 9 | 270 | 0.0 | 0.0 | 0.00 | 0.00 | 0.00 | 47 | 1010.0 |
| 20260504025058 | 9 | 270 | 0.0 | 0.0 | 0.00 | 0.00 | 0.00 | 48 | 1010.0 |
| 20260504024548 | 9 | 270 | 0.0 | 0.0 | 0.00 | 0.00 | 0.00 | 47 | 1010.0 |
| 20260504024056 | 9 | 270 | 0.0 | 0.0 | 0.00 | 0.00 | 0.00 | 46 | 1010.0 |
| 20260504023604 | 9 | 270 | 0.0 | 0.0 | 0.00 | 0.00 | 0.00 | 47 | 1010.0 |
| 20260504023051 | 9 | 270 | 0.0 | 0.0 | 0.00 | 0.00 | 0.00 | 47 | 1010.0 |
| 20260504022556 | 9 | 270 | 0.0 | 0.0 | 0.00 | 0.00 | 0.00 | 49 | 1010.0 |
| 20260504022103 | 10 | 270 | 0.0 | 0.0 | 0.00 | 0.00 | 0.00 | 47 | 1010.0 |
| 20260504021550 | 10 | 270 | 0.0 | 0.0 | 0.00 | 0.00 | 0.00 | 47 | 1010.0 |
| 20260504021057 | 10 | 270 | 0.0 | 0.0 | 0.00 | 0.00 | 0.00 | 46 | 1010.1 |
| 20260504020602 | 10 | 270 | 0.0 | 0.0 | 0.00 | 0.00 | 0.00 | 45 | 1010.1 |
| 20260504020106 | 10 | 270 | 0.0 | 0.0 | 0.00 | 0.00 | 0.00 | 45 | 1010.1 |
| 20260504015501 | 10 | 270 | 0.0 | 0.0 | 0.00 | 0.00 | 0.00 | 44 | 1009.9 |
| 20260504015012 | 10 | 270 | 0.0 | 0.0 | 0.00 | 0.00 | 0.00 | 45 | 1009.9 |
| 20260504014603 | 10 | 270 | 0.0 | 0.0 | 0.00 | 0.00 | 0.00 | 46 | 1009.9 |
| 20260504014102 | 10 | 270 | 0.0 | 0.0 | 0.00 | 0.00 | 0.00 | 45 | 1009.8 |
| 20260504013605 | 10 | 270 | 0.0 | 0.0 | 0.00 | 0.00 | 0.00 | 43 | 1009.8 |
| 20260504013005 | 10 | 270 | 0.0 | 0.0 | 0.00 | 0.00 | 0.00 | 41 | 1009.8 |
| 20260504012510 | 10 | 270 | 0.0 | 0.0 | 0.00 | 0.00 | 0.00 | 42 | 1009.6 |
| 20260504012059 | 11 | 270 | 0.0 | 0.0 | 0.00 | 0.00 | 0.00 | 43 | 1009.6 |
| 20260504011602 | 11 | 270 | 0.0 | 0.0 | 0.00 | 0.00 | 0.00 | 43 | 1009.6 |
| 20260504011107 | 11 | 270 | 0.0 | 0.0 | 0.00 | 0.00 | 0.00 | 41 | 1009.4 |
| 20260504010505 | 11 | 270 | 0.0 | 0.0 | 0.00 | 0.00 | 0.00 | 41 | 1009.4 |
| 20260504010114 | 11 | 270 | 0.0 | 0.0 | 0.00 | 0.00 | 0.00 | 43 | 1009.4 |
| 20260504005601 | 11 | 270 | 0.0 | 0.0 | 0.00 | 0.00 | 0.00 | 42 | 1009.3 |
| 20260504005103 | 11 | 270 | 0.0 | 0.0 | 0.00 | 0.00 | 0.00 | 41 | 1009.3 |
| 20260504004606 | 11 | 270 | 0.0 | 0.0 | 0.00 | 0.00 | 0.00 | 38 | 1009.3 |
| 20260504004055 | 12 | 270 | 0.0 | 0.0 | 0.00 | 0.00 | 0.00 | 36 | 1009.1 |
| 20260504003600 | 12 | 270 | 0.0 | 0.0 | 0.00 | 0.00 | 0.00 | 38 | 1009.1 |
| 20260504003102 | 12 | 270 | 0.0 | 0.0 | 0.00 | 0.00 | 0.00 | 35 | 1009.1 |
| 20260504002605 | 12 | 270 | 0.0 | 0.0 | 0.00 | 0.00 | 0.00 | 38 | 1008.8 |
| 20260504002003 | 12 | 270 | 0.0 | 0.0 | 0.00 | 0.00 | 0.00 | 34 | 1008.8 |
| 20260504001509 | 12 | 270 | 0.0 | 0.0 | 0.00 | 0.00 | 0.00 | 34 | 1008.8 |
| 20260504001104 | 13 | 270 | 0.0 | 0.0 | 0.00 | 0.00 | 0.00 | 35 | 1008.8 |
| 20260504000504 | 13 | 270 | 0.0 | 0.0 | 0.00 | 0.00 | 0.00 | 31 | 1008.8 |
| 20260504000020 | 13 | 270 | 0.0 | 0.0 | 0.00 | 0.00 | 0.00 | 31 | 1008.8 |
| 20260503235606 | 13 | 270 | 0.0 | 0.0 | 0.00 | 0.00 | 0.00 | 30 | 1008.6 |
| 20260503235104 | 13 | 270 | 0.0 | 0.0 | 0.00 | 0.00 | 0.00 | 30 | 1008.6 |
| 20260503234606 | 13 | 270 | 0.0 | 0.0 | 0.00 | 0.00 | 0.00 | 29 | 1008.6 |
| 20260503234004 | 13 | 270 | 0.0 | 0.0 | 0.00 | 0.00 | 0.00 | 29 | 1008.6 |
| 20260503233600 | 14 | 270 | 0.0 | 0.0 | 0.00 | 0.00 | 0.00 | 29 | 1008.6 |
| 20260503233104 | 14 | 270 | 0.0 | 0.0 | 0.00 | 0.00 | 0.00 | 28 | 1008.6 |
| 20260503232502 | 14 | 270 | 0.0 | 0.0 | 0.00 | 0.00 | 0.00 | 28 | 1008.5 |
| 20260503232056 | 14 | 302 | 0.0 | 0.0 | 0.00 | 0.00 | 0.00 | 27 | 1008.5 |
| 20260503231559 | 14 | 282 | 0.0 | 0.0 | 0.00 | 0.00 | 0.00 | 27 | 1008.5 |
| 20260503231102 | 14 | 236 | 0.0 | 0.0 | 0.00 | 0.00 | 0.00 | 27 | 1008.4 |
| 20260503230502 | 15 | 281 | 0.0 | 0.0 | 0.00 | 0.00 | 0.00 | 27 | 1008.4 |
| 20260503230006 | 15 | 281 | 0.0 | 0.0 | 0.00 | 0.00 | 0.00 | 27 | 1008.4 |
| 20260503225515 | 15 | 281 | 0.0 | 0.0 | 0.00 | 0.00 | 0.00 | 27 | 1008.4 |
| 20260503225013 | 15 | 281 | 0.0 | 0.0 | 0.00 | 0.00 | 0.00 | 27 | 1008.4 |
| 20260503224501 | 15 | 282 | 0.0 | 0.0 | 0.00 | 0.00 | 0.00 | 27 | 1008.4 |
| 20260503224007 | 15 | 282 | 0.0 | 0.0 | 0.00 | 0.00 | 0.00 | 27 | 1008.4 |
| 20260503223507 | 15 | 275 | 0.0 | 0.0 | 0.00 | 0.00 | 0.00 | 27 | 1008.4 |
| 20260503223011 | 15 | 318 | 0.0 | 0.0 | 0.00 | 0.00 | 0.00 | 28 | 1008.4 |
| 20260503222605 | 14 | 318 | 0.0 | 0.0 | 0.00 | 0.00 | 0.00 | 27 | 1008.4 |
| 20260503222107 | 14 | 287 | 0.0 | 0.0 | 0.00 | 0.00 | 0.00 | 26 | 1008.4 |
| 20260503221503 | 14 | 292 | 0.0 | 0.0 | 0.00 | 0.00 | 0.00 | 27 | 1008.4 |
| 20260503221005 | 14 | 272 | 0.0 | 0.0 | 0.00 | 0.00 | 0.00 | 26 | 1008.5 |
| 20260503220509 | 14 | 285 | 0.0 | 0.0 | 0.00 | 0.00 | 0.00 | 28 | 1008.5 |
| 20260503220106 | 14 | 272 | 0.0 | 0.0 | 0.00 | 0.00 | 0.00 | 26 | 1008.5 |
| 20260503215503 | 14 | 294 | 0.0 | 0.0 | 0.00 | 0.00 | 0.00 | 27 | 1008.5 |
| 20260503215005 | 14 | 285 | 0.0 | 0.0 | 0.00 | 0.00 | 0.00 | 25 | 1008.5 |
| 20260503214559 | 14 | 325 | 0.0 | 0.0 | 0.00 | 0.00 | 0.00 | 26 | 1008.5 |
| 20260503214101 | 14 | 302 | 0.0 | 0.0 | 0.00 | 0.00 | 0.00 | 26 | 1008.5 |
| 20260503213501 | 14 | 328 | 0.0 | 0.0 | 0.00 | 0.00 | 0.00 | 26 | 1008.5 |
| 20260503213004 | 14 | 278 | 0.0 | 0.0 | 0.00 | 0.00 | 0.00 | 26 | 1008.5 |
| 20260503212557 | 14 | 281 | 0.0 | 0.0 | 0.00 | 0.00 | 0.00 | 25 | 1008.3 |
| 20260503212106 | 14 | 258 | 0.0 | 0.0 | 0.00 | 0.00 | 0.00 | 26 | 1008.3 |
| 20260503211510 | 14 | 313 | 0.0 | 0.0 | 0.00 | 0.00 | 0.00 | 26 | 1008.3 |
| 20260503211101 | 15 | 323 | 0.0 | 0.0 | 0.00 | 0.00 | 0.00 | 26 | 1008.4 |
| 20260503210603 | 15 | 313 | 0.0 | 0.0 | 0.00 | 0.00 | 0.00 | 25 | 1008.4 |
| 20260503210009 | 14 | 285 | 0.0 | 0.0 | 0.00 | 0.00 | 0.00 | 26 | 1008.4 |
| 20260503205509 | 14 | 287 | 0.0 | 0.0 | 0.00 | 0.00 | 0.00 | 26 | 1008.4 |
| 20260503205100 | 14 | 291 | 0.0 | 0.0 | 0.00 | 0.00 | 0.00 | 28 | 1008.4 |
| 20260503204610 | 14 | 325 | 0.0 | 0.0 | 0.00 | 0.00 | 0.00 | 27 | 1008.4 |
| 20260503204106 | 14 | 275 | 0.0 | 0.0 | 0.00 | 0.00 | 0.00 | 27 | 1008.5 |
| 20260503203502 | 14 | 265 | 0.0 | 0.0 | 0.00 | 0.00 | 0.00 | 26 | 1008.5 |
| 20260503203009 | 14 | 296 | 0.0 | 0.0 | 0.00 | 0.00 | 0.00 | 28 | 1008.5 |
| 20260503202512 | 14 | 281 | 0.0 | 0.0 | 0.00 | 0.00 | 0.00 | 28 | 1008.8 |
| 20260503202016 | 13 | 268 | 0.0 | 0.0 | 0.00 | 0.00 | 0.00 | 27 | 1008.8 |
| 20260503201502 | 13 | 305 | 0.0 | 0.0 | 0.00 | 0.00 | 0.00 | 28 | 1008.8 |
| 20260503201005 | 13 | 285 | 0.0 | 0.0 | 0.00 | 0.00 | 0.00 | 28 | 1008.8 |
| 20260503200507 | 13 | 265 | 0.0 | 0.0 | 0.00 | 0.00 | 0.00 | 28 | 1008.8 |
| 20260503195504 | 13 | 270 | 0.0 | 0.0 | 0.00 | 0.00 | 0.00 | 28 | 1009.0 |
| 20260503195007 | 13 | 342 | 0.0 | 0.0 | 0.00 | 0.00 | 0.00 | 29 | 1009.0 |
| 20260503194509 | 13 | 284 | 0.0 | 0.0 | 0.00 | 0.00 | 0.00 | 27 | 1009.0 |
| 20260503194104 | 13 | 258 | 0.0 | 0.0 | 0.00 | 0.00 | 0.00 | 28 | 1009.1 |
| 20260503193605 | 13 | 296 | 0.0 | 0.0 | 0.00 | 0.00 | 0.00 | 28 | 1009.1 |
| 20260503193000 | 13 | 280 | 0.0 | 0.0 | 0.00 | 0.00 | 0.00 | 27 | 1009.1 |
| 20260503192505 | 13 | 287 | 0.0 | 0.0 | 0.00 | 0.00 | 0.00 | 27 | 1009.3 |
| 20260503192103 | 13 | 288 | 0.0 | 0.0 | 0.00 | 0.00 | 0.00 | 28 | 1009.3 |
| 20260503191608 | 12 | 264 | 0.0 | 0.0 | 0.00 | 0.00 | 0.00 | 29 | 1009.3 |
| 20260503191003 | 12 | 261 | 0.0 | 0.0 | 0.00 | 0.00 | 0.00 | 28 | 1009.5 |
| 20260503190506 | 13 | 311 | 0.0 | 0.0 | 0.00 | 0.00 | 0.00 | 28 | 1009.5 |
| 20260503185605 | 13 | 271 | 0.0 | 0.0 | 0.00 | 0.00 | 0.00 | 28 | 1009.5 |
| 20260503185107 | 12 | 337 | 0.0 | 0.0 | 0.00 | 0.00 | 0.00 | 28 | 1009.5 |
| 20260503184502 | 12 | 326 | 0.0 | 0.0 | 0.00 | 0.00 | 0.00 | 28 | 1009.5 |
| 20260503184056 | 13 | 356 | 0.0 | 0.0 | 0.00 | 0.00 | 0.00 | 28 | 1009.6 |
| 20260503183557 | 12 | 274 | 0.0 | 0.0 | 0.00 | 0.00 | 0.00 | 29 | 1009.6 |
| 20260503183108 | 12 | 263 | 0.0 | 0.0 | 0.00 | 0.00 | 0.00 | 28 | 1009.6 |
| 20260503182501 | 12 | 326 | 0.0 | 0.0 | 0.00 | 0.00 | 0.00 | 28 | 1009.7 |
| 20260503182010 | 12 | 271 | 0.0 | 0.0 | 0.00 | 0.00 | 0.00 | 27 | 1009.7 |
| 20260503181510 | 12 | 305 | 0.0 | 0.0 | 0.00 | 0.00 | 0.00 | 27 | 1009.7 |
| 20260503181104 | 12 | 288 | 0.0 | 0.0 | 0.00 | 0.00 | 0.00 | 28 | 1010.0 |
| 20260503180506 | 12 | 277 | 0.0 | 0.0 | 0.00 | 0.00 | 0.00 | 27 | 1010.0 |
| 20260503180008 | 12 | 248 | 0.0 | 0.0 | 0.00 | 0.00 | 0.00 | 27 | 1010.0 |
| 20260503175510 | 12 | 320 | 0.0 | 0.0 | 0.00 | 0.00 | 0.00 | 28 | 1009.8 |
| 20260503175104 | 12 | 294 | 0.0 | 0.0 | 0.00 | 0.00 | 0.00 | 28 | 1009.8 |
| 20260503174551 | 12 | 316 | 0.0 | 0.0 | 0.00 | 0.00 | 0.00 | 27 | 1009.8 |
| 20260503174055 | 12 | 292 | 0.0 | 0.0 | 0.00 | 0.00 | 0.00 | 29 | 1009.9 |
| 20260503173559 | 12 | 254 | 0.0 | 0.0 | 0.00 | 0.00 | 0.00 | 28 | 1009.9 |
| 20260503173210 | 11 | 257 | 0.0 | 0.0 | 0.00 | 0.00 | 0.00 | 28 | 1009.9 |
| 20260503172605 | 11 | 270 | 0.0 | 0.0 | 0.00 | 0.00 | 0.00 | 29 | 1010.0 |
| 20260503172003 | 11 | 253 | 0.0 | 0.0 | 0.00 | 0.00 | 0.00 | 28 | 1010.0 |
| 20260503171505 | 11 | 241 | 0.0 | 0.0 | 0.00 | 0.00 | 0.00 | 30 | 1010.0 |
| 20260503171058 | 11 | 250 | 4.8 | 0.0 | 0.00 | 0.00 | 0.00 | 28 | 1010.0 |
| 20260503170601 | 11 | 271 | 6.4 | 0.0 | 0.00 | 0.00 | 0.00 | 31 | 1010.0 |
| 20260503170105 | 11 | 301 | 1.6 | 0.0 | 0.00 | 0.00 | 0.00 | 31 | 1010.0 |
| 20260503151003 | 8 | 257 | 0.0 | 0.0 | 0.00 | 0.00 | 0.00 | 40 | 1010.6 |
| 20260503150559 | 9 | 318 | 0.0 | 0.0 | 0.00 | 0.00 | 0.00 | 43 | 1010.6 |
| 20260503131059 | 7 | 284 | 0.0 | 0.0 | 0.00 | 0.00 | 0.00 | 50 | 1010.3 |
| 20260503130602 | 7 | 288 | 0.0 | 0.0 | 0.00 | 0.00 | 0.00 | 51 | 1010.3 |
| 20260503130114 | 7 | 316 | 0.0 | 0.0 | 0.00 | 0.00 | 0.00 | 50 | 1010.3 |
| 20260503120116 | 6 | 288 | 0.0 | 0.0 | 0.00 | 0.00 | 0.00 | 56 | 1009.9 |